Roosevelt Roads, PR

2:39 AM AST on February 25, 2018 (GMT -0400)
Roosevelt Roads Ns

Weather History for TJNR - November, 2012

Change the Weather History Date:

Thursday, November 8, 2012

  Actual Average Record
Temperature  
Mean Temperature 82 °F -  
Max Temperature 88 °F 83 °F 89 °F (2013)
Min Temperature 75 °F 71 °F 72 °F (1997)
Cooling Degree Days 16    
Growing Degree Days 32 (Base 50)    
Moisture  
Dew Point 74 °F    
Average Humidity 82    
Maximum Humidity 97    
Minimum Humidity 63    
Precipitation  
Precipitation 0.09 in - - ()
Sea Level Pressure  
Sea Level Pressure 29.93 in    
Wind  
Wind Speed 2 mph (ESE)    
Max Wind Speed 9 mph    
Max Gust Speed -    
Visibility 10 miles    
Events Rain    
Averages and records for this station are not official NWS values.
T = Trace of Precipitation, MM = Missing Value Source: NWS Daily Summary

Daily Weather History Graph

Daily Weather History Graph

Search for Another Location

Airport or City:

Trip Planner

Search our weather history database for the weather conditions in past years. The results will help you decide how hot, cold, wet, or windy it might be!

Date:

Astronomy

Nov. 08, 2012 Rise Set
Actual Time 6:25 AM AST 5:47 PM AST
Civil Twilight 6:02 AM AST 6:09 PM AST
Nautical Twilight 5:36 AM AST 6:35 PM AST
Astronomical Twilight 5:10 AM AST 7:01 PM AST
Moon 1:05 AM AST (11/8) 1:42 PM AST (11/8)
Length of Visible Light 12h 07m
Length of Day
11h 21m
Waning Crescent, 33% of the Moon is Illuminated
Nov 8
Waning Crescent
Nov 13
New
Nov 20
First Quarter
Nov 28
Full
Dec 6
Last Quarter

Hourly Weather History & Observations

Time (AST) Temp. Heat Index Dew Point Humidity Pressure Visibility Wind Dir Wind Speed Gust Speed Precip Events Conditions
12:53 AM 75.9 °F - 73.9 °F 94% 29.93 in 10.0 mi Calm Calm - N/A   Clear
1:44 AM 75.2 °F - 73.4 °F 94% 29.92 in 10.0 mi Calm Calm - N/A   Mostly Cloudy
1:53 AM 75.9 °F - 73.9 °F 94% 29.92 in 10.0 mi Calm Calm - N/A   Mostly Cloudy
2:13 AM 77.0 °F - 73.4 °F 89% 29.91 in 10.0 mi Calm Calm - N/A   Overcast
2:53 AM 75.9 °F - 73.9 °F 94% 29.91 in 10.0 mi Calm Calm - N/A   Scattered Clouds
3:40 AM 75.2 °F - 73.4 °F 94% 29.90 in 2.5 mi Calm Calm - 0.02 in Rain Light Rain
3:48 AM 77.0 °F - 75.2 °F 94% 29.90 in 10.0 mi Calm Calm - 0.02 in Rain Light Rain
3:53 AM 75.9 °F - 75.0 °F 97% 29.90 in 10.0 mi Calm Calm - 0.02 in   Overcast
4:27 AM 77.0 °F - 75.2 °F 94% 29.90 in 10.0 mi Calm Calm - 0.07 in   Overcast
4:53 AM 77.0 °F - 75.0 °F 94% 29.90 in 10.0 mi Calm Calm - 0.07 in   Mostly Cloudy
5:53 AM 75.9 °F - 75.0 °F 97% 29.92 in 10.0 mi Calm Calm - N/A   Scattered Clouds
6:53 AM 77.0 °F - 75.9 °F 96% 29.94 in 9.0 mi North - - N/A   Scattered Clouds
7:53 AM 81.0 °F 87.3 °F 75.9 °F 85% 29.96 in 10.0 mi Calm Calm - N/A   Scattered Clouds
8:53 AM 82.9 °F 90.8 °F 75.9 °F 79% 29.97 in 10.0 mi ESE 3.5 mph - N/A   Mostly Cloudy
9:01 AM 82.4 °F 89.5 °F 75.2 °F 79% 29.97 in 10.0 mi SE 9.2 mph - N/A   Mostly Cloudy
9:36 AM 84.2 °F 92.3 °F 75.2 °F 74% 29.98 in 10.0 mi ESE 9.2 mph - N/A   Scattered Clouds
9:53 AM 86.0 °F 93.8 °F 73.9 °F 67% 29.97 in 10.0 mi ESE 6.9 mph - N/A   Clear
10:53 AM 87.1 °F 96.3 °F 75.0 °F 67% 29.97 in 10.0 mi East 6.9 mph - N/A   Partly Cloudy
11:53 AM 87.1 °F 97.3 °F 75.9 °F 69% 29.95 in 10.0 mi ESE 8.1 mph - N/A   Partly Cloudy
12:53 PM 88.0 °F 96.5 °F 73.9 °F 63% 29.93 in 10.0 mi East 8.1 mph - N/A   Clear
1:53 PM 88.0 °F 97.5 °F 75.0 °F 65% 29.91 in 10.0 mi ENE 8.1 mph - N/A   Clear
2:53 PM 87.1 °F 95.4 °F 73.9 °F 65% 29.90 in 10.0 mi East 9.2 mph - N/A   Clear
3:53 PM 86.0 °F 93.8 °F 73.9 °F 67% 29.89 in 10.0 mi East 8.1 mph - N/A   Clear
4:53 PM 82.9 °F 88.8 °F 73.0 °F 72% 29.89 in 10.0 mi East 8.1 mph - N/A   Clear
5:53 PM 81.0 °F 85.8 °F 73.0 °F 77% 29.90 in 10.0 mi East 5.8 mph - N/A   Clear
6:53 PM 81.0 °F 85.8 °F 73.0 °F 77% 29.91 in 10.0 mi East 3.5 mph - N/A   Clear
7:53 PM 80.1 °F 84.5 °F 73.9 °F 81% 29.93 in 10.0 mi East 3.5 mph - N/A   Clear
8:53 PM 80.1 °F 84.2 °F 73.0 °F 79% 29.93 in 10.0 mi ESE 3.5 mph - N/A   Partly Cloudy
9:53 PM 81.0 °F 86.2 °F 73.9 °F 79% 29.94 in 10.0 mi ESE 3.5 mph - N/A   Scattered Clouds
10:53 PM 80.1 °F 84.2 °F 73.0 °F 79% 29.94 in 10.0 mi Calm Calm - N/A   Partly Cloudy
11:49 PM 77.0 °F - 73.4 °F 89% 29.93 in 10.0 mi Calm Calm - N/A   Mostly Cloudy
11:53 PM 77.0 °F - 73.9 °F 90% 29.93 in 10.0 mi Calm Calm - N/A   Mostly Cloudy